Tracking 30995 objects as of 7-Jul-2025
HD Live streaming from Space Station
objects crossing your sky now

COSMOS 951

Track COSMOS 951 now!
10-day predictions
COSMOS 951 is classified as:


NORAD ID: 10352
Int'l Code: 1977-087A
Perigee: 967.3 km
Apogee: 1,015.3 km
Inclination: 83.0 °
Period: 104.8 minutes
Semi major axis: 7362 km
RCS: 4.4489 m2 (large)
Launch date: September 13, 1977
Source: Commonwealth of Independent States (former USSR) (CIS)
Launch site: PLESETSK MISSILE AND SPACE COMPLEX (PKMTR)
Your satellite tracking list
ONEWEB-0230
Track 1 satellite(s)




NASA's NSSDC Master Catalog

Two Line Element Set (TLE):
1 10352U 77087A   25187.64907612  .00000041  00000-0  27837-4 0  9994
2 10352  82.9685  67.0151 0032595 256.0674 160.7285 13.74308550397021
Source of the keplerian elements: AFSPC